Hourly Data Report for January 01, 1953

VANCOUVER INT'L A
BRITISH COLUMBIA

49°11'42.000" N
123°10'55.000" W
4.30 m
1108447
YVR

Download Data

Hourly Data (January 1953)
Hourly Data Report for January 1, 1953
TIME
LST
Temp Definition
°C
Dew Point Definition
°C
Rel Hum Definition
%
Precip. Amount Definition
mm

Wind Dir Definition
10's deg

Wind Spd Definition
km/h
Visibility Definition
km
Stn Press Definition
kPa
Hmdx Definition


Wind Chill Definition


Weather Definition


00:00 3.3 2.2 91   9 10 48.3 101.64     Clear
01:00 2.8 1.7 93   9 10 48.3 101.82     Mainly Clear
02:00 1.7 1.1 94   9 10 12.9 101.95     Mainly Clear
03:00 1.7 1.1 94   9 8 6.4 102.03     Smoke
04:00 1.1 0.6 96   9 8 3.2 102.07     Fog,Smoke
05:00 1.7 1.1 94   9 13 6.4 102.24     Smoke
06:00 1.1 0.6 96   7 13 9.7 102.34     Smoke
07:00 1.1 0.6 96   9 14 8.0 102.32     Smoke
08:00 1.7 1.7 98   9 16 11.3 102.38     Mostly Cloudy
09:00 2.8 2.2 95   9 13 9.7 102.43     Smoke
10:00 3.9 3.3 96   9 13 4.8 102.53     Smoke
11:00 4.4 3.3 92   9 16 9.7 102.58     Smoke
12:00 5.0 3.9 92   9 18 12.9 102.57     Cloudy
13:00 5.6 3.9 87   11 13 19.3 102.53     Cloudy
14:00 5.6 3.3 85   14 10 16.1 102.53     Cloudy
15:00 5.0 2.2 84   9 10 16.1 102.52     Cloudy
16:00 4.4 2.8 86   5 3 6.4 102.46     Smoke
17:00 4.4 2.2 85   9 5 6.4 102.42     Smoke
18:00 3.3 2.2 90   14 3 9.7 102.39     Smoke
19:00 3.9 1.1 84   9 13 16.1 102.31     Cloudy
20:00 3.9 1.1 83   11 13 16.1 102.29     Cloudy
21:00 3.9 1.1 83   9 11 16.1 102.26     Cloudy
22:00 3.9 1.1 84   11 10 16.1 102.28     Cloudy
23:00 4.4 0.6 77   9 18 16.1 102.31     Cloudy

Notes on Data Quality.

Legend

  • E = Estimated
  • M = Missing
  • NA = Not Available*
  • [empty] = Indicates an unobserved value
Date modified: